Regional Weather Roundup
Issued by NWS Kansas City/Pleasant Hill, MO

Home | Current Version | Previous Version | Text Only | Print | Product List | Glossary On
Versions: 1 2 3 4 5 6 7 8 9 10 11 12 13 14 15 16 17 18 19 20 21 22 23 24 25 26 27 28 29 30 31 32 33 34 35 36 37 38 39 40 41 42 43 44 45 46 47 48 49 50
000
ASUS43 KEAX 290710
RWREAX

WEATHER ROUNDUP FOR EASTERN KANSAS AND NORTHWEST MISSOURI
NATIONAL WEATHER SERVICE KANSAS CITY/PLEASANT HILL MO
200 AM CDT SAT AUG 29 2015

KSZ040-057-103>105-MOZ028-029-037-043-290800-
...KANSAS CITY METROPOLITAN AREA...

CITY           SKY/WX    TMP DP  RH WIND       PRES   REMARKS
K.C. INTL      CLOUDY    70  68  93 S5        29.93F
K.C. DOWNTOWN  CLOUDY    73  69  87 SW5       29.92F
LEES SUMMIT    CLOUDY    71  68  90 S7        29.95S
OLATHE - IXD   MOCLDY    70  68  93 S6        29.95S
OLATHE - OJC   CLOUDY    70  68  93 S6        29.94S
LAWRENCE       CLOUDY    69  67  93 CALM      29.93F

$$

MOZ001>008-011>017-020>025-030>033-038>040-044>046-053-054-290800-
...NORTHERN AND CENTRAL MISSOURI...

CITY           SKY/WX    TMP DP  RH WIND       PRES   REMARKS
ST. JOSEPH     CLOUDY    69  66  90 NE3       29.93S
MOSBY          CLOUDY    70  70 100 CALM      29.93F
WARRENSBURG    CLOUDY    70  64  83 S3        29.95S
WHITEMAN AFB   MOCLDY    68  64  86 S7        29.95S
CLINTON          N/A     72  66  83 CALM      29.97R
SEDALIA        CLOUDY    71  63  75 S8        29.97F
WARSAW         NOT AVBL
CHILLICOTHE      N/A     70  68  93 CALM      29.94F
KIRKSVILLE     CLOUDY    69  63  81 S7        29.96S

$$

MOZ041-047>049-056>058-063>065-088>090-097-290800-
...EASTERN AND SOUTHERN MISSOURI...

CITY           SKY/WX    TMP DP  RH WIND       PRES   REMARKS
ST. LOUIS INTL CLOUDY    74  62  66 S6        30.04R
SPIRIT OF STL  CLOUDY    69  65  86 CALM      30.02R
COLUMBIA       CLOUDY    69  63  81 S7        30.00S
JEFFERSON CITY CLOUDY    72  61  68 E5        29.99R
ROLLA          MOCLDY    69  60  73 S10       30.00F
OSAGE BEACH    MOCLDY    70  59  68 SE3       29.99F
SPRINGFIELD    CLOUDY    72  60  66 S14       30.00S
BRANSON        CLOUDY    70  61  73 CALM      30.05S
JOPLIN         MOCLDY    73  63  70 S12       29.97S
WEST PLAINS    CLOUDY    69  61  75 SW3       30.06S

$$

IAZ060-094-KSZ022-034>040-054-083-096-NEZ052-066-093-290800-
...KANSAS...SOUTHEAST NEBRASKA AND IOWA...

CITY           SKY/WX    TMP DP  RH WIND       PRES   REMARKS
TOPEKA         MOCLDY    70  68  93 W6        29.95S
MANHATTAN      PTCLDY    67  65  93 NW3       29.98S
EMPORIA        CLEAR     69  68  96 NW7       29.97S
CHANUTE        PTCLDY    70  68  93 S7        29.96S
WICHITA        CLEAR     73  67  81 N9        29.98F
OMAHA          CLOUDY    63  62  97 N10       29.97S
LINCOLN        CLOUDY    64  60  87 N14       30.00R
FALLS CITY     CLOUDY    67  65  93 NW10      29.93F
LAMONI         CLOUDY    70  68  93 S6        29.93S
DES MOINES     FOG       68  66  93 W7        29.90S VSB 1/2

$$




USA.gov is the U.S. government's official web portal to all federal, state and local government web resources and services.